Location: Norton
(51.3000°N, 0.8167°E)
Time: 17:49:34
(UTC+00:00)

H-2A R/B - Pass Details

Date: 03 March 2021
Orbit: 732 x 837 km, 98.2° (Epoch: 13 April)

Event Time Altitude Azimuth Distance (km) Brightness Sun altitude
Rises 19:42:29 0° 202° (SSW) 3,371 5.4 -19.6°
Reaches altitude 10° 19:45:17 10° 216° (SW) 2,447 4.8 -20.0°
Maximum altitude 19:49:39 24° 269° (W) 1,662 4.5 -20.7°
Drops below altitude 10° 19:54:03 10° 323° (NW) 2,456 5.3 -21.4°
Sets 19:56:52 0° 337° (NNW) 3,387 5.9 -21.8°
